New Orleans, LA

7:28 AM CDT on September 30, 2016 (GMT -0500)
Lakefront

Weather History for KNEW - July, 2013

Change the Weather History Date:

Tuesday, July 2, 2013

  Actual Average Record
Temperature  
Mean Temperature 83 °F 83 °F  
Max Temperature 88 °F 91 °F 100 °F (2011)
Min Temperature 77 °F 75 °F 67 °F (1984)
Degree Days  
Heating Degree Days 0 0  
Month to date heating degree days 0 0  
Since 1 June heating degree days 0 0  
Since 1 July heating degree days 0 0  
Cooling Degree Days 18 18  
Month to date cooling degree days 34 36  
Year to date cooling degree days 1068 1150  
Since 1 June cooling degree days 575 531  
Growing Degree Days 34 (Base 50)    
Moisture  
Dew Point 67 °F    
Average Humidity 60    
Maximum Humidity 74    
Minimum Humidity 46    
Precipitation  
Precipitation T in 0.22 in 1.62 in (1959)
Month to date precipitation 0.54 0.44  
Year to date precipitation 39.66 32.74  
Snow  
Snow 0.00 in - - ()
Month to date snowfall 0.0  
Since 1 June snowfall 0.0  
Since 1 July snowfall 0.0  
Snow Depth -    
Sea Level Pressure  
Sea Level Pressure 29.94 in    
Wind  
Wind Speed 7 mph (NE)    
Max Wind Speed 14 mph    
Max Gust Speed 16 mph    
Visibility 10 miles    
Events Rain    
T = Trace of Precipitation, MM = Missing Value Source: NWS Daily Summary

Daily Weather History Graph

Daily Weather History Graph

Search for Another Location

Airport or City:

Trip Planner

Search our weather history database for the weather conditions in past years. The results will help you decide how hot, cold, wet, or windy it might be!

Date:

Astronomy

Jul. 02, 2013 Rise Set
Actual Time 6:03 AM CDT 8:05 PM CDT
Civil Twilight 5:35 AM CDT 8:32 PM CDT
Nautical Twilight 5:02 AM CDT 9:05 PM CDT
Astronomical Twilight 4:26 AM CDT 9:41 PM CDT
Moon 1:53 AM CDT (7/2) 3:29 PM CDT (7/2)
Length of Visible Light 14h 57m
Length of Day
14h 02m
Waning Crescent, 26% of the Moon is Illuminated
Jul 2
Waning Crescent
Jul 8
New
Jul 15
First Quarter
Jul 22
Full
Jul 29
Last Quarter

Hourly Weather History & Observations

Time (CDT) Temp. Heat Index Dew Point Humidity Pressure Visibility Wind Dir Wind Speed Gust Speed Precip Events Conditions
12:53 AM 82.0 °F 84.9 °F 68.0 °F 62% 29.90 in 5.0 mi NE 6.9 mph - 0.03 in Rain Heavy Rain
1:53 AM 78.1 °F - 69.1 °F 74% 29.90 in 6.0 mi Calm Calm - 0.05 in Rain Light Rain
2:53 AM 81.0 °F 83.3 °F 66.9 °F 62% 29.89 in 10.0 mi NNE 11.5 mph - 0.01 in   Overcast
3:53 AM 81.0 °F 83.3 °F 66.9 °F 62% 29.89 in 10.0 mi NNE 12.7 mph - N/A   Overcast
4:53 AM 80.1 °F 82.3 °F 66.9 °F 64% 29.91 in 10.0 mi NNE 12.7 mph - N/A   Overcast
5:53 AM 80.1 °F 82.3 °F 66.9 °F 64% 29.93 in 10.0 mi NE 12.7 mph - N/A   Clear
6:53 AM 80.1 °F 82.7 °F 68.0 °F 67% 29.94 in 10.0 mi NE 11.5 mph - N/A   Mostly Cloudy
7:53 AM 81.0 °F 83.3 °F 66.9 °F 62% 29.95 in 10.0 mi NE 12.7 mph - N/A   Clear
9:53 AM 82.9 °F 85.4 °F 66.9 °F 58% 29.97 in 10.0 mi NE 10.4 mph - N/A   Scattered Clouds
10:53 AM 84.9 °F 87.1 °F 66.0 °F 53% 29.97 in 10.0 mi ENE 8.1 mph - N/A   Scattered Clouds
11:53 AM 86.0 °F 87.6 °F 64.9 °F 49% 29.98 in 10.0 mi NE 8.1 mph - N/A   Mostly Cloudy
12:53 PM 88.0 °F 91.4 °F 68.0 °F 51% 29.97 in 10.0 mi North 8.1 mph - N/A   Partly Cloudy
1:53 PM 89.1 °F 92.1 °F 66.9 °F 48% 29.96 in 10.0 mi North 9.2 mph - N/A   Partly Cloudy
2:53 PM 88.0 °F 89.6 °F 64.9 °F 46% 29.94 in 10.0 mi North 5.8 mph - N/A   Partly Cloudy
3:53 PM 90.0 °F 92.8 °F 66.9 °F 46% 29.93 in 10.0 mi NNE 4.6 mph - N/A   Scattered Clouds
4:53 PM 87.1 °F 88.9 °F 64.9 °F 48% 29.93 in 10.0 mi Variable 4.6 mph - N/A   Mostly Cloudy
5:53 PM 82.0 °F 84.1 °F 66.0 °F 58% 29.93 in 10.0 mi South 5.8 mph - N/A   Overcast
6:53 PM 84.9 °F 86.6 °F 64.9 °F 51% 29.94 in 10.0 mi Calm Calm - N/A   Mostly Cloudy
7:53 PM 84.9 °F 87.6 °F 66.9 °F 55% 29.96 in 10.0 mi East 3.5 mph - N/A   Mostly Cloudy
8:53 PM 84.9 °F 88.2 °F 68.0 °F 57% 29.96 in 10.0 mi ENE 8.1 mph - N/A   Mostly Cloudy
9:53 PM 84.0 °F 87.0 °F 68.0 °F 58% 29.97 in 10.0 mi NE 5.8 mph - N/A   Clear
10:53 PM 82.9 °F 85.8 °F 68.0 °F 60% 29.98 in 10.0 mi ESE 5.8 mph - N/A   Partly Cloudy
11:53 PM 82.9 °F 86.5 °F 69.1 °F 63% 29.98 in 10.0 mi East 3.5 mph - N/A   Clear